Airfield :
LOGIN :

Register | Disclaimer

   EN    FR    IT 

 










Legend :    VFR   Marginal VFR   IFR   Intensive IFR   Very Intensive IFR
Visi :
Ceiling :
>= 8 km
>= 3000ft
5 to 8 km
1000 to 3000 ft
1500m to 5 km
500 to 1000 ft
800 to 1500m
200 to 500 ft
< 800m
< 200 ft
Symbols :   Thunderstorms  Fog  Heavy snow  Heavy precipitations  Wind > 20 kt
SIGMETs :     Misc.  Thunderstorms  Icing  Turbulence  Mountain Waves  Volcanic Ashes







- Airport Elevation : 939 ft


LKKB - Kbely Air Base

CURRENT METAR :
  • 221700Z 33008KT 300V010 CAVOK 26/05 Q1012 NOSIG

EXPIRED METARs :
  • 221600Z 31010KT 280V350 CAVOK 27/06 Q1012 NOSIG
  • 221500Z 32009KT 290V350 CAVOK 27/06 Q1012 NOSIG

TAF TAF LKKB
Valid from the 22 at 12:00 until the 23 at 12:00 UTC


221100Z 2212/2312 02010KT CAVOK
PROB30
TEMPO 2212/2218 35012G24KT 8000 SHRA SCT045TCU
BECMG 2309/2311 SCT045
TEMPO 2310/2312 34010G22KT 8000 SHRA SCT040TCU
No reported NOTAMs for that airfield.



MET'MAP, your aeronautical weather chart ! - Copyright ORBIFLY December 2007 - Disclaimer

ORBIFLY MET'MAP TEAM :

Programming & Development : Alexandra Zaïnal
Concept & Development : Baudouin d'Aumeries
Co-Development & Prog : Marc-Olivier Méhu
Technical & hardware support : Manuel Goepfert

Contact : metmap@orbifly.com




SOURCES & CREDITS :

   NOAA